Vero Beach, FL

9:10 AM EDT on October 20, 2017 (GMT -0400)
Vero Beach Municipal

Weather History for KVRB - September, 2012

Change the Weather History Date:

Sunday, September 16, 2012

  Actual Average Record
Temperature  
Mean Temperature 80 °F 81 °F  
Max Temperature 87 °F 88 °F 94 °F (1990)
Min Temperature 73 °F 74 °F 66 °F (1967)
Degree Days  
Heating Degree Days 0 0  
Month to date heating degree days 0 0  
Since 1 July heating degree days 0 0  
Cooling Degree Days 15 16  
Month to date cooling degree days 246 256  
Year to date cooling degree days 2779 2554  
Growing Degree Days 30 (Base 50)    
Moisture  
Dew Point 72 °F    
Average Humidity 77    
Maximum Humidity 94    
Minimum Humidity 59    
Precipitation  
Precipitation 0.94 in 0.23 in 7.12 in (1944)
Month to date precipitation 7.24 3.60  
Year to date precipitation 39.43 38.30  
Sea Level Pressure  
Sea Level Pressure 30.03 in    
Wind  
Wind Speed 6 mph (ESE)    
Max Wind Speed 21 mph    
Max Gust Speed 29 mph    
Visibility 9 miles    
Events Rain    
T = Trace of Precipitation, MM = Missing Value Source: NWS Daily Summary

Daily Weather History Graph

Daily Weather History Graph

Search for Another Location

Airport or City:

Trip Planner

Search our weather history database for the weather conditions in past years. The results will help you decide how hot, cold, wet, or windy it might be!

Date:

Astronomy

Sep. 16, 2012 Rise Set
Actual Time 7:07 AM EDT 7:24 PM EDT
Civil Twilight 6:44 AM EDT 7:47 PM EDT
Nautical Twilight 6:16 AM EDT 8:15 PM EDT
Astronomical Twilight 5:49 AM EDT 8:42 PM EDT
Moon 7:36 AM EDT (9/16) 7:40 PM EDT (9/16)
Length of Visible Light 13h 03m
Length of Day
12h 16m
New Moon, 0% of the Moon is Illuminated
Sep 16
New Moon
Sep 22
First Quarter
Sep 29
Full
Oct 8
Last Quarter
Oct 15
New

Hourly Weather History & Observations

Time (EDT) Temp. Heat Index Dew Point Humidity Pressure Visibility Wind Dir Wind Speed Gust Speed Precip Events Conditions
12:42 AM 77.0 °F - 73.4 °F 89% 30.06 in 10.0 mi ESE 8.1 mph - N/A   Mostly Cloudy
12:53 AM 77.0 °F - 71.1 °F 82% 30.06 in 8.0 mi ESE 9.2 mph - 0.00 in Rain Light Rain
1:53 AM 77.0 °F - 73.0 °F 88% 30.05 in 10.0 mi East 3.5 mph - 0.01 in   Scattered Clouds
2:53 AM 78.1 °F - 72.0 °F 81% 30.03 in 10.0 mi East 5.8 mph - N/A   Mostly Cloudy
3:53 AM 75.9 °F - 71.1 °F 85% 30.02 in 10.0 mi Calm Calm - N/A   Mostly Cloudy
4:02 AM 75.2 °F - 71.6 °F 89% 30.02 in 10.0 mi North 4.6 mph - N/A   Mostly Cloudy
4:22 AM 77.0 °F - 71.6 °F 83% 30.02 in 10.0 mi ESE 4.6 mph - N/A   Mostly Cloudy
4:53 AM 75.9 °F - 69.1 °F 79% 30.01 in 10.0 mi Calm Calm - N/A   Partly Cloudy
5:53 AM 75.9 °F - 70.0 °F 82% 30.02 in 10.0 mi East 5.8 mph - N/A   Mostly Cloudy
6:53 AM 75.0 °F - 70.0 °F 84% 30.04 in 10.0 mi North 4.6 mph - N/A   Overcast
8:53 AM 82.0 °F 87.4 °F 73.0 °F 74% 30.05 in 10.0 mi East 10.4 mph - N/A   Mostly Cloudy
9:53 AM 84.0 °F 90.2 °F 73.0 °F 69% 30.06 in 10.0 mi East 9.2 mph - N/A   Scattered Clouds
10:53 AM 84.9 °F 90.7 °F 72.0 °F 65% 30.07 in 10.0 mi East 12.7 mph - N/A   Clear
11:53 AM 86.0 °F 91.5 °F 71.1 °F 61% 30.06 in 10.0 mi East 12.7 mph - N/A   Partly Cloudy
12:53 PM 87.1 °F 93.6 °F 72.0 °F 61% 30.05 in 10.0 mi ESE 11.5 mph 19.6 mph N/A   Scattered Clouds
1:53 PM 84.0 °F 89.6 °F 72.0 °F 67% 30.04 in 10.0 mi ESE 12.7 mph - N/A   Scattered Clouds
2:53 PM 82.9 °F 88.0 °F 72.0 °F 69% 30.03 in 10.0 mi East 6.9 mph - N/A   Partly Cloudy
3:53 PM 82.0 °F 87.9 °F 73.9 °F 76% 30.00 in 10.0 mi SSE 6.9 mph - N/A   Partly Cloudy
4:53 PM 80.1 °F 84.2 °F 73.0 °F 79% 30.00 in 10.0 mi SE 9.2 mph - N/A   Overcast
5:00 PM 80.6 °F 85.4 °F 73.4 °F 79% 30.00 in 10.0 mi SE 6.9 mph - N/A   Mostly Cloudy
5:30 PM 80.6 °F 84.6 °F 71.6 °F 74% 30.00 in 10.0 mi SE 9.2 mph - N/A   Overcast
5:53 PM 75.9 °F - 72.0 °F 87% 30.01 in 2.5 mi ESE 21.9 mph - 0.00 in Rain Rain
6:53 PM 73.9 °F - 72.0 °F 93% 30.02 in 2.0 mi SSE 8.1 mph - 0.83 in Rain Heavy Rain
7:00 PM 73.4 °F - 71.6 °F 94% 30.03 in 1.8 mi SSE 4.6 mph - 0.05 in Rain Rain
7:08 PM 73.4 °F - 71.6 °F 94% 30.02 in 2.0 mi SE 4.6 mph - 0.06 in Rain Light Rain
7:22 PM 73.4 °F - 71.6 °F 94% 30.03 in 8.0 mi Calm Calm - 0.07 in Rain Light Rain
7:53 PM 73.9 °F - 72.0 °F 93% 30.02 in 10.0 mi North 3.5 mph - 0.09 in Rain Light Rain
8:53 PM 75.0 °F - 73.0 °F 94% 30.03 in 10.0 mi SE 5.8 mph - 0.02 in   Scattered Clouds
9:53 PM 75.9 °F - 73.9 °F 94% 30.03 in 10.0 mi Calm Calm - N/A   Clear
10:53 PM 75.9 °F - 73.0 °F 91% 30.03 in 10.0 mi Calm Calm - N/A   Clear
11:53 PM 73.9 °F - 72.0 °F 93% 30.03 in 10.0 mi Calm Calm - N/A   Clear